Location: Strohbehn Observatory
(42.4649°N, 93.8239°W)
Time: 12:46:17
(UTC-06:00)

SL-16 R/B - Visible Passes

Search period start: 03 March 2015 00:00
Search period end: 13 March 2015 01:00
Orbit: 843 x 846 km, 71.0° (Epoch: 01 March)

Date Brightness Start Highest point End Pass type
(mag) Time Alt. Az. Time Alt. Az. Time Alt. Az.
04 Mar 5.1 22:34:21 10° NNW 22:34:24 10° NNW 22:34:24 10° NNW visible
05 Mar 4.6 20:38:47 10° NNE 20:38:47 10° NNE 20:38:47 10° NNE visible
05 Mar 4.9 22:20:10 10° NNW 22:20:40 13° NNW 22:20:40 13° NNW visible
06 Mar 4.5 20:24:50 10° NNE 20:25:04 10° NNE 20:25:04 10° NNE visible
06 Mar 4.7 22:06:00 10° NNW 22:06:57 15° NNW 22:06:57 15° NNW visible
07 Mar 4.4 20:10:56 10° NNE 20:11:23 10° NE 20:11:23 10° NE visible
07 Mar 4.4 21:51:48 10° NNW 21:53:16 18° N 21:53:16 18° N visible
08 Mar 4.4 20:57:20 10° NE 20:57:31 10° NE 20:57:43 10° NE visible
08 Mar 4.2 22:37:37 10° NNW 22:39:36 22° N 22:39:36 22° N visible
09 Mar 3.9 22:23:27 10° NNW 22:25:57 26° N 22:25:57 26° N visible
10 Mar 3.6 22:09:15 10° NNW 22:12:21 30° N 22:12:21 30° N visible
10 Mar 5.1 23:54:01 10° NW 23:54:15 11° NW 23:54:15 11° NW visible
11 Mar 3.2 21:55:05 10° NNW 21:58:48 36° NNE 21:58:48 36° NNE visible
11 Mar 4.9 23:39:47 10° NW 23:40:41 14° NW 23:40:41 14° NW visible
12 Mar 2.9 21:40:54 10° NNW 21:45:16 41° NNE 21:45:16 41° NNE visible
12 Mar 4.6 23:25:32 10° NW 23:27:10 17° WNW 23:27:10 17° WNW visible
